This demonstration page uses our WeatherBlox Daily Observations layout. Learn more.

38.89511, -77.03637

Hourly Observations for June 2, 2020

Temp ( °F °C ) Dew Point ( °F °C ) Humidity (%) Winds ( mph kmh ) Pressure ( in mb ) Visibility ( mi km ) Precip ( " mm )
12:52 am 00:52 Mostly Cloudy 63 17.2 47 8.3 56 56 SSW 9 15 30.18 1022 10 16.0934 0 0
1:52 am 01:52 Mostly Cloudy 62 16.7 46 7.8 56 56 SSW 7 11 30.16 1021 10 16.0934 0 0
2:52 am 02:52 Mostly Cloudy 60 15.6 47 8.3 62 62 SW 6 9 30.15 1021 10 16.0934 0 0
3:52 am 03:52 Mostly Cloudy 58 14.4 47 8.3 67 67 SW 5 7 30.15 1021 10 16.0934 0 0
4:52 am 04:52 Mostly Cloudy 58 14.4 48 8.9 70 70 WSW 6 9 30.14 1021 10 16.0934 0 0
5:52 am 05:52 Mostly Cloudy 59 15 50 10 72 72 SW 3 6 30.14 1021 10 16.0934 0 0
6:52 am 06:52 Cloudy 61 16.1 48 8.9 63 63 SW 7 11 30.14 1021 10 16.0934 0 0
7:52 am 07:52 Cloudy 61 16.1 51 10.6 70 70 SSW 9 15 30.13 1020 10 16.0934 0 0
8:52 am 08:52 Cloudy 62 16.7 49 9.4 62 62 SW 6 9 30.14 1021 10 16.0934 0 0
9:52 am 09:52 Cloudy 62 16.7 49 9.4 62 62 SSW 5 7 30.12 1020 10 16.0934 0 0
10:52 am 10:52 Cloudy with Light Rain 64 17.8 52 11.1 65 65 S 5 7 30.1 1019 10 16.0934 0.001 0.001
11:52 am 11:52 Mostly Cloudy 66 18.9 51 10.6 59 59 SE 5 7 30.08 1019 10 16.0934 0.001 0.001
12:52 pm 12:52 Mostly Cloudy 70 21.1 51 10.6 51 51 ESE 3 6 30.06 1018 10 16.0934 0 0
1:52 pm 13:52 Cloudy 72 22.2 50 10 46 46 S 10 17 30.02 1017 10 16.0934 0 0
2:52 pm 14:52 Cloudy 72 22.2 48 8.9 43 43 S 12 19 29.99 1016 10 16.0934 0 0
3:52 pm 15:52 Mostly Cloudy 74 23.3 52 11.1 46 46 S 12 19 29.96 1015 10 16.0934 0 0
4:52 pm 16:52 Mostly Cloudy 76 24.4 54 12.2 47 47 S 13 20 29.93 1014 10 16.0934 0 0
5:52 pm 17:52 Mostly Cloudy 76 24.4 55 12.8 48 48 S 14 22 29.9 1012 10 16.0934 0 0
6:52 pm 18:52 Mostly Cloudy 77 25 56 13.3 48 48 S 13 20 29.88 1012 10 16.0934 0 0
7:52 pm 19:52 Partly Cloudy 75 23.9 59 15 58 58 S 8 13 29.87 1012 10 16.0934 0 0
8:52 pm 20:52 Clear 73 22.8 59 15 62 62 S 6 9 29.87 1012 10 16.0934 0 0
9:52 pm 21:52 Mostly Cloudy 73 22.8 57 13.9 57 57 S 5 7 29.87 1012 10 16.0934 0 0
10:52 pm 22:52 Cloudy 70 21.1 60 15.6 71 71 S 7 11 29.86 1011 10 16.0934 0 0
11:52 pm 23:52 Cloudy 70 21.1 61 16.1 73 73 SSW 6 9 29.84 1011 10 16.0934 0 0

Powered by AerisWeather